Flag for Poland Weather past 2 weeks in Chorzów, Poland

Now
63 °F

Sunny.


Feels Like: 63 °F
Forecast: 55 / 71 °F
Wind: 3 mph from West

Location: Katowice Airport

Current Time: Sep 2, 2015 at 7:24:13 PM

Latest Report: Sep 2, 2015 at 7:00 PM


Visibility: 10 mi

Pressure: 29.98 "Hg

Humidity: 68%

Dew point: 52 °F

Location of ChorzówLocation

Historic Weather in Chorzów — Graph

°F

Chorzów temperature yesterday

Maximum temperature yesterday: 93 °F (at 3:00 PM)
Minimum temperature yesterday: 68 °F (at 2:30 AM)
Average temperature yesterday: 82 °F

Past Weeks' High & Low Weather Summary

 TemperatureHumidityPressure
High95 °F (Aug 31, 4:00 PM)100% (Aug 26, 2:00 AM)30.30 "Hg (Aug 26, 2:00 AM)
Low46 °F (Aug 22, 6:00 AM)24% (Aug 31, 1:30 PM)29.74 "Hg (Sep 1, 5:00 PM)
Average68 °F59%30.07 "Hg
* Reported Aug 18 6:00 PM — Sep 2 6:00 PM, Chorzów, Weather by CustomWeather, © 2015

Note: Actual official high and low records may vary slightly from our data, if they occured in-between our weather recording intervals... More about our weather records

Advertising

Chorzów weather history for previous 24 hours

 ConditionsComfort  
Time TempWeatherWind HumidityBarometerVisibility
6:00 PM
Wed, Sep 2
64 °FScattered clouds.2 mph64%29.98 "HgN/A
5:30 PM64 °FPartly sunny.5 mph64%30.01 "HgN/A
5:00 PM64 °FBroken clouds.6 mph64%30.01 "HgN/A
4:30 PM64 °FPartly sunny.7 mph60%29.98 "HgN/A
4:00 PM64 °FBroken clouds.10 mph64%30.01 "HgN/A
3:30 PM64 °FBroken clouds.8 mph64%30.01 "HgN/A
3:00 PM64 °FBroken clouds.9 mph64%30.01 "HgN/A
2:30 PM63 °FBroken clouds.9 mph73%30.01 "HgN/A
2:00 PM63 °FPartly sunny.9 mph73%30.01 "HgN/A
1:30 PM61 °FBroken clouds.10 mph77%30.01 "HgN/A
1:00 PM61 °FBroken clouds.13 mph83%30.01 "HgN/A
12:30 PM61 °FBroken clouds.10 mph83%30.01 "HgN/A
12:00 PM59 °FBroken clouds.10 mph88%30.01 "HgN/A
11:30 AM59 °FLight rain. Broken clouds.8 mph94%30.01 "HgN/A
11:00 AM59 °FDrizzle. Broken clouds.10 mph94%29.98 "HgN/A
10:30 AM59 °FBroken clouds.13 mph88%30.01 "HgN/A
10:00 AM59 °FBroken clouds.10 mph94%29.98 "HgN/A
9:30 AM59 °FBroken clouds.8 mph94%29.95 "HgN/A
9:00 AM59 °FBroken clouds.10 mph94%29.95 "HgN/A
8:30 AM61 °FBroken clouds.9 mph94%29.95 "HgN/A
8:00 AM59 °FLight rain. Broken clouds.13 mph94%29.92 "Hg5 mi
7:30 AM61 °FDrizzle. Fog.15 mph94%29.92 "Hg1 mi
7:00 AM63 °FDrizzle. Fog.14 mph94%29.89 "Hg2 mi
6:30 AM64 °FDrizzle. Fog.10 mph94%29.89 "Hg1 mi
6:00 AM66 °FPassing clouds.9 mph83%29.86 "HgN/A
5:30 AM66 °FPassing clouds.8 mph83%29.86 "HgN/A
5:00 AM66 °FPassing clouds.12 mph83%29.83 "HgN/A
4:30 AM66 °FClear.10 mph78%29.83 "Hg10 mi
4:00 AM68 °FClear.13 mph73%29.83 "Hg10 mi
3:30 AM68 °FClear.12 mph73%29.83 "Hg10 mi
3:00 AM68 °FClear.10 mph73%29.80 "Hg10 mi
2:30 AM68 °FClear.8 mph69%29.80 "Hg10 mi
2:00 AM68 °FClear.10 mph69%29.80 "Hg10 mi
1:30 AM63 °FClear.6 mph77%29.77 "Hg10 mi
1:00 AM70 °FClear.2 mph64%29.77 "Hg10 mi
11:30 PM
Tue, Sep 1
73 °FClear.6 mph57%29.77 "Hg10 mi
11:00 PM77 °FPassing clouds.3 mph51%29.77 "HgN/A
10:30 PM79 °FPassing clouds.3 mph48%29.77 "HgN/A
10:00 PM81 °FClear.12 mph45%29.77 "Hg10 mi
9:30 PM81 °FClear.10 mph45%29.77 "Hg10 mi
9:00 PM81 °FClear.7 mph45%29.77 "Hg10 mi
8:30 PM82 °FClear.8 mph42%29.74 "Hg10 mi
8:00 PM84 °FSunny.6 mph40%29.74 "Hg10 mi
7:30 PM86 °FSunny.6 mph38%29.74 "Hg10 mi
7:00 PM88 °FSunny.7 mph35%29.74 "Hg10 mi
Weather by CustomWeather, © 2015

See weather overviewHow to use our weather pages